UPS518 KBOS-KRDU

Flight info

Callsign UPS518
Flight time 1h 37m
Altitude 380000
Route SSOXS7 SSOXS Q167 ZJAAY TAQLE2
Aircraft B748/H-V/N

Departure

Time 2026-05-06 23:30
Airport Boston Logan International Airport (KBOS)

Arrival

Time 2026-05-07 01:07
Airport Raleigh-Durham International Airport (KRDU)
Time Latitude Longitude Altitude Speed Heading
2026-05-06 23:05 42.35812 -71.01929 32 ft 0 kts 211°
2026-05-06 23:16 42.35819 -71.01923 31 ft 1 kts 211°
2026-05-06 23:16 42.35828 -71.01916 29 ft 2 kts 211°
2026-05-06 23:16 42.35836 -71.01909 28 ft 1 kts 202°
2026-05-06 23:16 42.35846 -71.01904 29 ft 1 kts 182°
2026-05-06 23:17 42.35856 -71.01903 30 ft 1 kts 163°
2026-05-06 23:17 42.35866 -71.01907 28 ft 2 kts 153°
2026-05-06 23:17 42.35880 -71.01919 34 ft 3 kts 132°
2026-05-06 23:17 42.35885 -71.01926 34 ft 0 kts 119°
2026-05-06 23:22 42.35879 -71.01910 36 ft 4 kts 118°
2026-05-06 23:22 42.35866 -71.01872 38 ft 6 kts 111°
2026-05-06 23:22 42.35851 -71.01808 32 ft 8 kts 105°
2026-05-06 23:23 42.35836 -71.01724 32 ft 10 kts 103°
2026-05-06 23:23 42.35825 -71.01637 32 ft 7 kts 92°
2026-05-06 23:23 42.35839 -71.01597 32 ft 5 kts 47°
2026-05-06 23:23 42.35915 -71.01535 32 ft 20 kts 21°
2026-05-06 23:24 42.36063 -71.01465 32 ft 24 kts 19°
2026-05-06 23:24 42.36219 -71.01392 31 ft 23 kts 19°
2026-05-06 23:24 42.36363 -71.01321 31 ft 21 kts 20°
2026-05-06 23:24 42.36495 -71.01256 32 ft 19 kts 18°
2026-05-06 23:25 42.36615 -71.01200 32 ft 18 kts 19°
2026-05-06 23:25 42.36730 -71.01151 32 ft 17 kts 11°
2026-05-06 23:25 42.36827 -71.01194 32 ft 14 kts 324°
2026-05-06 23:25 42.36907 -71.01196 32 ft 11 kts 34°
2026-05-06 23:26 42.36953 -71.01152 32 ft 13 kts 36°
2026-05-06 23:26 42.37051 -71.01071 32 ft 20 kts 26°
2026-05-06 23:26 42.37185 -71.00982 32 ft 7 kts 26°
2026-05-06 23:26 42.37186 -71.00981 32 ft 0 kts 26°
2026-05-06 23:27 42.37197 -71.00974 32 ft 7 kts 26°
2026-05-06 23:27 42.37278 -71.00924 32 ft 19 kts 22°
2026-05-06 23:27 42.37447 -71.00840 32 ft 31 kts 20°
2026-05-06 23:28 42.37645 -71.00741 32 ft 28 kts 20°
2026-05-06 23:28 42.37794 -71.00665 32 ft 20 kts 25°
2026-05-06 23:28 42.37824 -71.00542 32 ft 12 kts 104°
2026-05-06 23:28 42.37779 -71.00494 32 ft 6 kts 171°
2026-05-06 23:29 42.37727 -71.00508 32 ft 21 kts 196°
2026-05-06 23:29 42.37356 -71.00682 34 ft 94 kts 199°
2026-05-06 23:29 42.36514 -71.01088 36 ft 161 kts 199°
2026-05-06 23:29 42.35308 -71.01675 370 ft 195 kts 200°
2026-05-06 23:30 42.34056 -71.02301 964 ft 190 kts 201°
2026-05-06 23:30 42.32658 -71.02614 1091 ft 225 kts 172°
2026-05-06 23:30 42.31239 -71.01542 1811 ft 249 kts 141°
2026-05-06 23:30 42.30365 -70.99395 2588 ft 276 kts 109°
2026-05-06 23:31 42.30281 -70.96760 3355 ft 295 kts 81°
2026-05-06 23:31 42.30939 -70.94097 4091 ft 302 kts 68°
2026-05-06 23:31 42.31622 -70.91408 4803 ft 303 kts 75°
2026-05-06 23:31 42.32142 -70.88627 5542 ft 308 kts 78°
2026-05-06 23:32 42.32566 -70.85772 6309 ft 311 kts 81°
2026-05-06 23:32 42.32936 -70.82899 7045 ft 312 kts 83°
2026-05-06 23:32 42.32920 -70.79990 7748 ft 310 kts 109°
2026-05-06 23:32 42.32273 -70.77216 8543 ft 310 kts 115°
2026-05-06 23:33 42.31482 -70.74490 9352 ft 313 kts 120°
2026-05-06 23:33 42.30535 -70.71800 10010 ft 324 kts 124°
2026-05-06 23:33 42.29172 -70.69280 10124 ft 340 kts 147°
2026-05-06 23:33 42.27208 -70.67583 10881 ft 335 kts 160°
2026-05-06 23:34 42.25121 -70.66248 11643 ft 337 kts 166°
2026-05-06 23:34 42.22902 -70.65169 12412 ft 341 kts 170°
2026-05-06 23:34 42.20622 -70.64177 13182 ft 347 kts 171°
2026-05-06 23:34 42.18290 -70.63208 13933 ft 353 kts 171°
2026-05-06 23:35 42.15919 -70.62250 14621 ft 357 kts 174°
2026-05-06 23:35 42.13505 -70.62002 15349 ft 344 kts 193°
2026-05-06 23:35 42.11128 -70.62442 16105 ft 344 kts 197°
2026-05-06 23:35 42.08799 -70.63208 16856 ft 344 kts 202°
2026-05-06 23:36 42.06521 -70.64203 17632 ft 345 kts 205°
2026-05-06 23:36 42.04254 -70.65292 18369 ft 347 kts 205°
2026-05-06 23:36 42.01971 -70.66388 19052 ft 349 kts 205°
2026-05-06 23:36 41.99673 -70.67471 19745 ft 350 kts 205°
2026-05-06 23:37 41.97396 -70.68536 20455 ft 351 kts 205°
2026-05-06 23:37 41.95055 -70.69607 21197 ft 351 kts 205°
2026-05-06 23:37 41.92756 -70.70582 21877 ft 354 kts 204°
2026-05-06 23:37 41.90386 -70.71607 22312 ft 353 kts 205°
2026-05-06 23:38 41.88055 -70.72657 22900 ft 355 kts 206°
2026-05-06 23:38 41.85685 -70.73697 23456 ft 360 kts 205°
2026-05-06 23:38 41.83308 -70.74782 23956 ft 359 kts 209°
2026-05-06 23:38 41.81055 -70.76168 24479 ft 355 kts 215°
2026-05-06 23:39 41.78898 -70.77776 24993 ft 354 kts 218°
2026-05-06 23:39 41.76781 -70.79471 25519 ft 355 kts 219°
2026-05-06 23:39 41.74657 -70.81168 26050 ft 357 kts 218°
2026-05-06 23:39 41.72508 -70.82852 26544 ft 359 kts 218°
2026-05-06 23:40 41.70341 -70.84529 27047 ft 360 kts 218°
2026-05-06 23:40 41.68161 -70.86207 27549 ft 362 kts 218°
2026-05-06 23:40 41.65964 -70.87870 28042 ft 364 kts 218°
2026-05-06 23:40 41.63733 -70.89491 28515 ft 366 kts 218°
2026-05-06 23:41 41.61502 -70.91146 29013 ft 367 kts 218°
2026-05-06 23:41 41.59304 -70.92795 29481 ft 368 kts 219°
2026-05-06 23:41 41.57065 -70.94480 29936 ft 370 kts 219°
2026-05-06 23:41 41.54937 -70.96350 30311 ft 359 kts 230°
2026-05-06 23:42 41.53170 -70.98688 30676 ft 356 kts 236°
2026-05-06 23:42 41.51655 -71.01281 31032 ft 353 kts 241°
2026-05-06 23:42 41.50334 -71.04043 31377 ft 353 kts 244°
2026-05-06 23:42 41.49068 -71.06862 31733 ft 355 kts 244°
2026-05-06 23:43 41.47764 -71.09679 32094 ft 358 kts 243°
2026-05-06 23:43 41.46406 -71.12471 32440 ft 360 kts 242°
2026-05-06 23:43 41.45011 -71.15265 32786 ft 362 kts 242°
2026-05-06 23:43 41.43599 -71.18058 33134 ft 364 kts 242°
2026-05-06 23:44 41.42190 -71.20826 33462 ft 366 kts 242°
2026-05-06 23:44 41.40751 -71.23643 33793 ft 368 kts 242°
2026-05-06 23:44 41.39305 -71.26468 34075 ft 370 kts 242°
2026-05-06 23:44 41.37854 -71.29301 34354 ft 371 kts 242°
2026-05-06 23:45 41.36407 -71.32157 34627 ft 372 kts 243°
2026-05-06 23:45 41.34974 -71.35040 34909 ft 374 kts 243°
2026-05-06 23:45 41.33522 -71.37925 35196 ft 376 kts 243°
2026-05-06 23:45 41.32055 -71.40815 35466 ft 378 kts 243°
2026-05-06 23:46 41.30575 -71.43718 35736 ft 379 kts 243°
2026-05-06 23:46 41.29095 -71.46627 35992 ft 380 kts 243°
2026-05-06 23:46 41.27611 -71.49551 36264 ft 382 kts 243°
2026-05-06 23:46 41.26128 -71.52480 36530 ft 383 kts 243°
2026-05-06 23:47 41.24635 -71.55429 36787 ft 385 kts 243°
2026-05-06 23:47 41.23156 -71.58344 37041 ft 386 kts 243°
2026-05-06 23:47 41.21650 -71.61307 37283 ft 387 kts 243°
2026-05-06 23:47 41.20138 -71.64277 37538 ft 389 kts 243°
2026-05-06 23:48 41.18618 -71.67258 37786 ft 390 kts 243°
2026-05-06 23:48 41.17090 -71.70252 38023 ft 392 kts 243°
2026-05-06 23:48 41.15554 -71.73266 38036 ft 398 kts 244°
2026-05-06 23:49 41.12428 -71.79469 38067 ft 410 kts 243°
2026-05-06 23:49 41.09221 -71.85763 38057 ft 415 kts 243°
2026-05-06 23:50 41.05984 -71.92070 38053 ft 412 kts 243°
2026-05-06 23:50 41.01534 -72.01701 38051 ft 402 kts 251°
2026-05-06 23:51 40.99344 -72.08444 38060 ft 400 kts 252°
2026-05-06 23:51 40.97089 -72.15129 38046 ft 401 kts 251°
2026-05-06 23:52 40.94710 -72.21809 38044 ft 401 kts 251°
2026-05-06 23:52 40.92306 -72.28458 38039 ft 401 kts 250°
2026-05-06 23:53 40.90709 -72.31534 38081 ft 418 kts 233°
2026-05-06 23:53 40.88625 -72.34253 38065 ft 418 kts 236°
2026-05-06 23:53 40.84712 -72.39912 38055 ft 418 kts 236°
2026-05-06 23:54 40.80621 -72.45414 38051 ft 423 kts 230°
2026-05-06 23:54 40.75939 -72.50216 38071 ft 427 kts 230°
2026-05-06 23:55 40.71432 -72.55276 38065 ft 425 kts 231°
2026-05-06 23:55 40.66948 -72.60353 38052 ft 424 kts 232°
2026-05-06 23:56 40.62519 -72.65483 38058 ft 423 kts 232°
2026-05-06 23:56 40.58108 -72.70616 38052 ft 423 kts 232°
2026-05-06 23:57 40.53709 -72.75689 38046 ft 424 kts 231°
2026-05-06 23:57 40.49218 -72.80781 38057 ft 423 kts 232°
2026-05-06 23:58 40.44824 -72.85848 38060 ft 422 kts 232°
2026-05-06 23:58 40.40358 -72.90898 38057 ft 424 kts 232°
2026-05-06 23:59 40.35918 -72.95964 38049 ft 423 kts 232°
2026-05-06 23:59 40.31490 -73.01036 38050 ft 424 kts 232°
2026-05-07 00:00 40.27001 -73.06071 37856 ft 423 kts 232°
2026-05-07 00:00 40.23320 -73.10266 37871 ft 421 kts 232°
2026-05-07 00:01 40.18157 -73.16092 37875 ft 422 kts 232°
2026-05-07 00:01 40.13712 -73.21102 37874 ft 422 kts 232°
2026-05-07 00:02 40.09275 -73.26140 37880 ft 423 kts 232°
2026-05-07 00:02 40.04786 -73.31125 37880 ft 423 kts 232°
2026-05-07 00:03 40.00347 -73.36148 37875 ft 422 kts 232°
2026-05-07 00:03 39.95883 -73.41082 37875 ft 423 kts 232°
2026-05-07 00:04 39.91426 -73.46094 37879 ft 422 kts 232°
2026-05-07 00:04 39.86932 -73.51070 37893 ft 424 kts 232°
2026-05-07 00:05 39.82464 -73.56061 37883 ft 423 kts 232°
2026-05-07 00:05 39.78027 -73.61008 37891 ft 424 kts 232°
2026-05-07 00:06 39.73545 -73.65967 37889 ft 422 kts 232°
2026-05-07 00:06 39.69098 -73.70946 37569 ft 420 kts 231°
2026-05-07 00:07 39.66873 -73.73356 37163 ft 414 kts 232°
2026-05-07 00:07 39.64682 -73.75768 36772 ft 409 kts 232°
2026-05-07 00:07 39.62531 -73.78158 36424 ft 405 kts 232°
2026-05-07 00:07 39.60403 -73.80531 36073 ft 401 kts 232°
2026-05-07 00:08 39.58293 -73.82888 35723 ft 397 kts 232°
2026-05-07 00:08 39.56189 -73.85199 35380 ft 396 kts 231°
2026-05-07 00:08 39.54116 -73.87452 35046 ft 392 kts 232°
2026-05-07 00:08 39.52046 -73.89735 34713 ft 389 kts 232°
2026-05-07 00:09 39.49990 -73.92019 34380 ft 387 kts 232°
2026-05-07 00:09 39.47930 -73.94315 34074 ft 393 kts 231°
2026-05-07 00:09 39.45815 -73.96602 33747 ft 399 kts 231°
2026-05-07 00:09 39.43690 -73.98929 33376 ft 402 kts 231°
2026-05-07 00:10 39.41549 -74.01315 33024 ft 407 kts 231°
2026-05-07 00:10 39.39372 -74.03696 32662 ft 413 kts 229°
2026-05-07 00:10 39.37177 -74.06057 32293 ft 418 kts 230°
2026-05-07 00:10 39.34958 -74.08508 31958 ft 422 kts 230°
2026-05-07 00:11 39.30373 -74.13492 31910 ft 440 kts 229°
2026-05-07 00:11 39.25643 -74.18695 31899 ft 450 kts 229°
2026-05-07 00:12 39.20824 -74.23884 31895 ft 449 kts 229°
2026-05-07 00:12 39.16053 -74.29083 31888 ft 450 kts 228°
2026-05-07 00:13 39.12075 -74.33384 31888 ft 449 kts 229°
2026-05-07 00:13 39.06496 -74.39395 31902 ft 449 kts 228°
2026-05-07 00:14 39.02540 -74.43721 31907 ft 448 kts 229°
2026-05-07 00:14 38.97731 -74.48847 31901 ft 449 kts 228°
2026-05-07 00:15 38.92986 -74.54039 31896 ft 447 kts 229°
2026-05-07 00:15 38.88391 -74.59373 31894 ft 445 kts 231°
2026-05-07 00:16 38.83873 -74.64793 31896 ft 445 kts 231°
2026-05-07 00:16 38.79277 -74.70090 31904 ft 446 kts 230°
2026-05-07 00:17 38.74708 -74.75469 31894 ft 447 kts 230°
2026-05-07 00:17 38.69839 -74.80505 31900 ft 452 kts 226°
2026-05-07 00:18 38.64937 -74.85532 31897 ft 450 kts 228°
2026-05-07 00:18 38.60124 -74.90652 31898 ft 450 kts 227°
2026-05-07 00:19 38.55254 -74.95633 31902 ft 450 kts 227°
2026-05-07 00:19 38.50455 -75.00750 31896 ft 449 kts 229°
2026-05-07 00:20 38.45669 -75.05901 31903 ft 453 kts 225°
2026-05-07 00:20 38.40663 -75.10812 31891 ft 453 kts 225°
2026-05-07 00:21 38.35589 -75.15562 31893 ft 455 kts 225°
2026-05-07 00:21 38.30537 -75.20418 31887 ft 455 kts 225°
2026-05-07 00:22 38.25432 -75.25196 31887 ft 455 kts 225°
2026-05-07 00:22 38.20351 -75.30029 31896 ft 457 kts 224°
2026-05-07 00:23 38.15290 -75.34813 31890 ft 455 kts 225°
2026-05-07 00:23 38.10171 -75.39588 31886 ft 457 kts 224°
2026-05-07 00:24 38.07640 -75.41996 31474 ft 451 kts 225°
2026-05-07 00:24 38.05148 -75.44402 31085 ft 449 kts 225°
2026-05-07 00:24 38.02740 -75.46903 30603 ft 444 kts 228°
2026-05-07 00:24 38.00469 -75.49530 30127 ft 439 kts 229°
2026-05-07 00:25 37.98269 -75.52202 29615 ft 437 kts 230°
2026-05-07 00:25 37.96085 -75.54871 29077 ft 435 kts 230°
2026-05-07 00:25 37.93906 -75.57537 28541 ft 437 kts 230°
2026-05-07 00:25 37.91689 -75.60209 28031 ft 444 kts 229°
2026-05-07 00:26 37.89425 -75.62818 27512 ft 445 kts 228°
2026-05-07 00:26 37.87120 -75.65435 27029 ft 451 kts 228°
2026-05-07 00:26 37.84784 -75.68199 26540 ft 460 kts 229°
2026-05-07 00:26 37.82435 -75.70977 26051 ft 462 kts 228°
2026-05-07 00:27 37.80050 -75.73707 25581 ft 461 kts 228°
2026-05-07 00:27 37.77689 -75.76434 25094 ft 458 kts 229°
2026-05-07 00:27 37.75374 -75.79186 24621 ft 456 kts 229°
2026-05-07 00:27 37.73027 -75.81885 24161 ft 455 kts 228°
2026-05-07 00:28 37.70681 -75.84564 23917 ft 455 kts 229°
2026-05-07 00:28 37.68388 -75.87281 23909 ft 446 kts 229°
2026-05-07 00:28 37.66108 -75.89904 23903 ft 441 kts 229°
2026-05-07 00:28 37.63828 -75.92498 23911 ft 440 kts 229°
2026-05-07 00:29 37.61598 -75.95134 23908 ft 440 kts 230°
2026-05-07 00:29 37.59454 -75.97811 23906 ft 437 kts 233°
2026-05-07 00:30 37.53779 -76.06662 23918 ft 427 kts 238°
2026-05-07 00:30 37.51978 -76.09599 23908 ft 420 kts 238°
2026-05-07 00:30 37.50179 -76.12499 23919 ft 420 kts 237°
2026-05-07 00:30 37.48320 -76.15356 23923 ft 422 kts 236°
2026-05-07 00:31 37.46437 -76.18189 23920 ft 422 kts 236°
2026-05-07 00:31 37.44582 -76.21066 23922 ft 424 kts 237°
2026-05-07 00:31 37.42734 -76.23990 23926 ft 429 kts 237°
2026-05-07 00:31 37.40840 -76.26880 23917 ft 420 kts 236°
2026-05-07 00:32 37.39041 -76.29593 23907 ft 398 kts 237°
2026-05-07 00:32 37.37342 -76.32240 23911 ft 379 kts 237°
2026-05-07 00:32 37.35727 -76.34768 23910 ft 363 kts 237°
2026-05-07 00:32 37.34162 -76.37120 23893 ft 336 kts 237°
2026-05-07 00:33 37.32726 -76.39307 23912 ft 319 kts 238°
2026-05-07 00:33 37.31344 -76.41463 23913 ft 316 kts 238°
2026-05-07 00:33 37.29970 -76.43624 23913 ft 316 kts 238°
2026-05-07 00:33 37.28570 -76.45748 23916 ft 316 kts 237°
2026-05-07 00:34 37.27160 -76.47877 23919 ft 316 kts 238°
2026-05-07 00:34 37.25782 -76.50025 23917 ft 316 kts 238°
2026-05-07 00:34 37.24408 -76.52188 23921 ft 317 kts 238°
2026-05-07 00:34 37.23013 -76.54330 23918 ft 317 kts 238°
2026-05-07 00:35 37.21642 -76.56490 23429 ft 315 kts 239°
2026-05-07 00:35 37.20289 -76.58629 22881 ft 312 kts 238°
2026-05-07 00:35 37.18910 -76.60741 22365 ft 311 kts 238°
2026-05-07 00:35 37.17561 -76.62850 21914 ft 309 kts 238°
2026-05-07 00:36 37.16245 -76.64936 21944 ft 310 kts 238°
2026-05-07 00:36 37.14879 -76.67031 21927 ft 310 kts 237°
2026-05-07 00:36 37.13522 -76.69128 21914 ft 309 kts 238°
2026-05-07 00:36 37.12188 -76.71244 21918 ft 310 kts 238°
2026-05-07 00:37 37.10821 -76.73352 21920 ft 311 kts 237°
2026-05-07 00:37 37.09456 -76.75441 21914 ft 310 kts 238°
2026-05-07 00:37 37.08114 -76.77561 21910 ft 311 kts 238°
2026-05-07 00:37 37.06756 -76.79669 21910 ft 311 kts 237°
2026-05-07 00:38 37.05378 -76.81764 21919 ft 312 kts 237°
2026-05-07 00:38 37.04028 -76.83880 21923 ft 311 kts 238°
2026-05-07 00:38 37.02672 -76.86003 21922 ft 312 kts 237°
2026-05-07 00:38 37.01291 -76.88102 21927 ft 313 kts 237°
2026-05-07 00:39 36.99935 -76.90197 21689 ft 313 kts 238°
2026-05-07 00:39 36.98587 -76.92320 21322 ft 310 kts 237°
2026-05-07 00:39 36.97223 -76.94410 21025 ft 309 kts 237°
2026-05-07 00:39 36.95856 -76.96472 20817 ft 306 kts 237°
2026-05-07 00:40 36.94527 -76.98544 20602 ft 305 kts 238°
2026-05-07 00:40 36.93197 -77.00617 20306 ft 306 kts 237°
2026-05-07 00:40 36.91839 -77.02668 20024 ft 305 kts 236°
2026-05-07 00:40 36.90499 -77.04724 19735 ft 304 kts 238°
2026-05-07 00:41 36.89185 -77.06779 19445 ft 302 kts 237°
2026-05-07 00:41 36.87843 -77.08813 19154 ft 302 kts 237°
2026-05-07 00:41 36.86512 -77.10837 18828 ft 300 kts 238°
2026-05-07 00:41 36.85211 -77.12870 18503 ft 299 kts 237°
2026-05-07 00:42 36.83893 -77.14870 18171 ft 298 kts 237°
2026-05-07 00:42 36.82593 -77.16836 17729 ft 296 kts 237°
2026-05-07 00:42 36.81311 -77.18840 17272 ft 294 kts 237°
2026-05-07 00:42 36.80019 -77.20817 16917 ft 292 kts 236°
2026-05-07 00:43 36.78720 -77.22772 16958 ft 292 kts 236°
2026-05-07 00:43 36.77401 -77.24720 16948 ft 292 kts 236°
2026-05-07 00:43 36.76108 -77.26681 16953 ft 292 kts 236°
2026-05-07 00:43 36.74813 -77.28601 16954 ft 293 kts 236°
2026-05-07 00:44 36.73495 -77.30539 16952 ft 293 kts 236°
2026-05-07 00:44 36.72206 -77.32495 16948 ft 293 kts 236°
2026-05-07 00:44 36.70892 -77.34439 16951 ft 293 kts 236°
2026-05-07 00:44 36.69570 -77.36375 16951 ft 293 kts 236°
2026-05-07 00:45 36.68279 -77.38335 16949 ft 293 kts 236°
2026-05-07 00:45 36.66964 -77.40287 16796 ft 294 kts 236°
2026-05-07 00:45 36.65639 -77.42220 16643 ft 293 kts 235°
2026-05-07 00:45 36.64343 -77.44161 16477 ft 291 kts 236°
2026-05-07 00:46 36.63049 -77.46098 16265 ft 291 kts 235°
2026-05-07 00:46 36.61736 -77.48017 16023 ft 290 kts 234°
2026-05-07 00:46 36.60441 -77.49933 15770 ft 288 kts 236°
2026-05-07 00:46 36.59164 -77.51854 15527 ft 288 kts 235°
2026-05-07 00:47 36.57886 -77.53727 15292 ft 287 kts 234°
2026-05-07 00:47 36.56576 -77.55641 15043 ft 286 kts 235°
2026-05-07 00:47 36.55326 -77.57525 14804 ft 285 kts 234°
2026-05-07 00:47 36.54046 -77.59408 14574 ft 285 kts 234°
2026-05-07 00:48 36.52754 -77.61284 14344 ft 285 kts 234°
2026-05-07 00:48 36.51492 -77.63179 14100 ft 284 kts 234°
2026-05-07 00:48 36.50221 -77.65054 13864 ft 283 kts 233°
2026-05-07 00:48 36.48943 -77.66911 13632 ft 282 kts 233°
2026-05-07 00:49 36.47684 -77.68775 13371 ft 281 kts 234°
2026-05-07 00:49 36.46434 -77.70634 13113 ft 280 kts 233°
2026-05-07 00:49 36.45174 -77.72465 12859 ft 278 kts 233°
2026-05-07 00:49 36.43926 -77.74292 12613 ft 277 kts 234°
2026-05-07 00:50 36.42694 -77.76133 12351 ft 276 kts 233°
2026-05-07 00:50 36.41455 -77.77937 12099 ft 274 kts 233°
2026-05-07 00:50 36.40217 -77.79732 11853 ft 273 kts 234°
2026-05-07 00:50 36.39005 -77.81544 11609 ft 272 kts 234°
2026-05-07 00:51 36.37781 -77.83326 11369 ft 269 kts 233°
2026-05-07 00:51 36.36561 -77.85090 11128 ft 268 kts 233°
2026-05-07 00:51 36.35387 -77.86845 10898 ft 267 kts 234°
2026-05-07 00:51 36.34183 -77.88599 10652 ft 267 kts 233°
2026-05-07 00:52 36.32976 -77.90337 10416 ft 264 kts 233°
2026-05-07 00:52 36.31805 -77.92083 10187 ft 263 kts 234°
2026-05-07 00:52 36.30617 -77.93812 9946 ft 263 kts 233°
2026-05-07 00:52 36.29423 -77.95530 9694 ft 261 kts 233°
2026-05-07 00:53 36.28261 -77.97257 9428 ft 261 kts 233°
2026-05-07 00:53 36.27086 -77.98965 9189 ft 260 kts 233°
2026-05-07 00:53 36.25905 -78.00665 8990 ft 260 kts 233°
2026-05-07 00:53 36.24755 -78.02378 8998 ft 258 kts 233°
2026-05-07 00:54 36.23608 -78.04056 9002 ft 258 kts 234°
2026-05-07 00:54 36.22599 -78.05877 9002 ft 256 kts 243°
2026-05-07 00:54 36.21792 -78.07851 9001 ft 256 kts 247°
2026-05-07 00:54 36.21078 -78.09861 9002 ft 255 kts 249°
2026-05-07 00:55 36.20422 -78.11910 9004 ft 255 kts 250°
2026-05-07 00:55 36.19780 -78.13964 9014 ft 255 kts 250°
2026-05-07 00:55 36.19141 -78.16018 9018 ft 256 kts 250°
2026-05-07 00:55 36.18465 -78.18060 8781 ft 256 kts 249°
2026-05-07 00:56 36.17769 -78.20081 8522 ft 255 kts 248°
2026-05-07 00:56 36.17068 -78.22100 8275 ft 255 kts 249°
2026-05-07 00:56 36.16403 -78.24121 8027 ft 253 kts 250°
2026-05-07 00:56 36.15739 -78.26140 7813 ft 252 kts 249°
2026-05-07 00:57 36.15093 -78.28119 7565 ft 251 kts 251°
2026-05-07 00:57 36.14578 -78.30135 7309 ft 236 kts 256°
2026-05-07 00:57 36.14216 -78.32030 7026 ft 217 kts 258°
2026-05-07 00:57 36.13913 -78.33803 6788 ft 206 kts 259°
2026-05-07 00:58 36.13632 -78.35541 6537 ft 205 kts 259°
2026-05-07 00:58 36.13357 -78.37272 6166 ft 205 kts 259°
2026-05-07 00:58 36.13092 -78.38992 5796 ft 202 kts 259°
2026-05-07 00:58 36.12821 -78.40689 5422 ft 200 kts 258°
2026-05-07 00:59 36.12077 -78.43963 4678 ft 193 kts 252°
2026-05-07 00:59 36.11634 -78.45526 4277 ft 191 kts 251°
2026-05-07 00:59 36.11198 -78.47067 4045 ft 188 kts 251°
2026-05-07 01:00 36.10909 -78.48089 4032 ft 190 kts 250°
2026-05-07 01:00 36.10329 -78.50132 4029 ft 190 kts 251°
2026-05-07 01:00 36.09685 -78.51558 4028 ft 192 kts 236°
2026-05-07 01:00 36.08868 -78.52872 4000 ft 192 kts 234°
2026-05-07 01:01 36.08319 -78.53731 4024 ft 193 kts 233°
2026-05-07 01:01 36.07477 -78.55007 4023 ft 191 kts 233°
2026-05-07 01:01 36.06633 -78.56268 4028 ft 190 kts 233°
2026-05-07 01:01 36.05776 -78.57540 4026 ft 193 kts 232°
2026-05-07 01:02 36.04906 -78.58809 4019 ft 193 kts 231°
2026-05-07 01:02 36.03998 -78.60013 4025 ft 190 kts 228°
2026-05-07 01:02 36.03055 -78.61130 4019 ft 186 kts 226°
2026-05-07 01:02 36.02081 -78.62199 3817 ft 188 kts 225°
2026-05-07 01:03 36.01088 -78.63243 3521 ft 188 kts 224°
2026-05-07 01:03 36.00131 -78.64316 3315 ft 180 kts 227°
2026-05-07 01:03 35.99269 -78.65411 3136 ft 177 kts 228°
2026-05-07 01:03 35.98432 -78.66512 2890 ft 180 kts 229°
2026-05-07 01:04 35.97574 -78.67621 2652 ft 177 kts 228°
2026-05-07 01:04 35.96701 -78.68719 2416 ft 182 kts 227°
2026-05-07 01:04 35.95815 -78.69817 2164 ft 176 kts 226°
2026-05-07 01:04 35.94979 -78.70846 1912 ft 165 kts 226°
2026-05-07 01:05 35.94181 -78.71825 1768 ft 161 kts 226°
2026-05-07 01:05 35.93387 -78.72807 1552 ft 164 kts 226°
2026-05-07 01:05 35.92597 -78.73792 1300 ft 161 kts 226°
2026-05-07 01:05 35.91801 -78.74800 1117 ft 169 kts 225°
2026-05-07 01:06 35.90980 -78.75824 870 ft 169 kts 224°
2026-05-07 01:06 35.90137 -78.76866 669 ft 173 kts 223°
2026-05-07 01:06 35.89289 -78.77914 448 ft 173 kts 223°
2026-05-07 01:06 35.88508 -78.78875 402 ft 130 kts 225°
2026-05-07 01:07 35.88087 -78.79392 397 ft 59 kts 224°
2026-05-07 01:07 35.87939 -78.79457 395 ft 15 kts 146°
2026-05-07 01:07 35.87926 -78.79444 394 ft 0 kts 141°
2026-05-07 01:08 35.87926 -78.79443 397 ft 0 kts 141°
2026-05-07 01:10 35.87926 -78.79442 397 ft 0 kts 141°
2026-05-07 01:10 35.87908 -78.79422 392 ft 5 kts 134°
2026-05-07 01:10 35.87897 -78.79383 395 ft 6 kts 91°
2026-05-07 01:10 35.87919 -78.79327 394 ft 10 kts 51°
2026-05-07 01:11 35.87967 -78.79260 392 ft 9 kts 47°
2026-05-07 01:11 35.87982 -78.79253 394 ft 1 kts
2026-05-07 01:11 35.88000 -78.79258 394 ft 6 kts 350°
2026-05-07 01:11 35.88066 -78.79234 398 ft 14 kts 33°
2026-05-07 01:12 35.88141 -78.79150 396 ft 14 kts 44°
2026-05-07 01:12 35.88211 -78.79063 396 ft 13 kts 55°
2026-05-07 01:12 35.88203 -78.78976 396 ft 9 kts 133°
2026-05-07 01:12 35.88158 -78.78922 395 ft 9 kts 136°
2026-05-07 01:13 35.88118 -78.78875 401 ft 3 kts 136°
2026-05-07 01:13 35.88118 -78.78874 401 ft 1 kts 136°
2026-05-07 01:13 35.88096 -78.78848 403 ft 9 kts 136°
2026-05-07 01:14 35.88042 -78.78784 407 ft 12 kts 136°
2026-05-07 01:14 35.87989 -78.78721 410 ft 6 kts 136°
2026-05-07 01:14 35.87964 -78.78694 412 ft 10 kts 144°
2026-05-07 01:14 35.87916 -78.78693 417 ft 2 kts 214°
2026-05-07 01:15 35.87908 -78.78716 415 ft 7 kts 256°
2026-05-07 01:15 35.87958 -78.78791 405 ft 23 kts 318°
2026-05-07 01:15 35.88050 -78.78895 395 ft 3 kts 316°
2026-05-07 01:15 35.88074 -78.78922 391 ft 11 kts 316°
2026-05-07 01:16 35.88130 -78.78980 393 ft 10 kts 332°
2026-05-07 01:16 35.88187 -78.78972 396 ft 8 kts 31°
2026-05-07 01:16 35.88233 -78.78924 395 ft 10 kts 43°
2026-05-07 01:16 35.88293 -78.78851 398 ft 14 kts 45°
2026-05-07 01:17 35.88370 -78.78755 400 ft 18 kts 45°
2026-05-07 01:17 35.88461 -78.78644 402 ft 19 kts 44°
2026-05-07 01:17 35.88558 -78.78524 405 ft 19 kts 45°
2026-05-07 01:17 35.88641 -78.78419 407 ft 15 kts 45°
2026-05-07 01:18 35.88705 -78.78339 405 ft 12 kts 45°